Time,TemperatureF,DewpointF,PressureIn,WindDirection,WindDirectionDegrees,WindSpeedMPH,WindSpeedGustMPH,Humidity,HourlyPrecipIn,Conditions,Clouds,dailyrainin,SoftwareType,DateUTC
2017-09-20 00:02:00,48.3,45.8,29.70,SW,221,0.0,0.0,91,0.00,,---,0.00,VWS V15.00,2017-09-20 07:02:00,
2017-09-20 00:07:00,48.3,45.8,29.69,SW,221,0.0,0.0,91,0.00,,---,0.00,VWS V15.00,2017-09-20 07:07:00,
2017-09-20 00:12:00,48.3,45.8,29.69,SW,222,0.0,0.0,91,0.00,,---,0.00,VWS V15.00,2017-09-20 07:12:00,
2017-09-20 00:17:00,48.1,45.6,29.69,SW,221,0.0,0.0,91,0.00,,---,0.00,VWS V15.00,2017-09-20 07:17:00,
2017-09-20 00:22:00,47.9,45.4,29.69,SW,222,0.0,0.0,91,0.00,,---,0.00,VWS V15.00,2017-09-20 07:22:00,
2017-09-20 00:27:00,47.7,45.2,29.68,SW,221,0.0,0.0,91,0.00,,---,0.00,VWS V15.00,2017-09-20 07:27:00,
2017-09-20 00:32:00,47.5,45.0,29.68,SW,222,0.0,0.0,91,0.00,,---,0.00,VWS V15.00,2017-09-20 07:32:00,
2017-09-20 00:37:00,47.5,45.3,29.68,SW,222,0.0,0.0,92,0.00,,---,0.00,VWS V15.00,2017-09-20 07:37:00,
2017-09-20 00:42:00,47.4,44.9,29.68,SW,222,0.0,0.0,91,0.00,,---,0.00,VWS V15.00,2017-09-20 07:42:00,
2017-09-20 00:47:00,47.1,44.6,29.68,SW,221,0.0,0.0,91,0.00,,---,0.00,VWS V15.00,2017-09-20 07:47:00,
2017-09-20 00:52:00,46.9,44.4,29.67,SW,222,0.0,0.0,91,0.00,,---,0.00,VWS V15.00,2017-09-20 07:52:00,
2017-09-20 00:57:00,46.7,44.2,29.67,SW,221,0.0,0.0,91,0.00,,---,0.00,VWS V15.00,2017-09-20 07:57:00,
2017-09-20 01:01:00,46.5,44.0,29.67,SW,221,0.0,0.0,91,0.00,,---,0.00,VWS V15.00,2017-09-20 08:01:00,
2017-09-20 01:06:00,46.3,43.8,29.67,SW,221,0.0,0.0,91,0.00,,---,0.00,VWS V15.00,2017-09-20 08:06:00,
2017-09-20 01:11:00,46.1,43.9,29.67,SW,222,0.0,0.0,92,0.00,,---,0.00,VWS V15.00,2017-09-20 08:11:00,
2017-09-20 01:16:00,46.0,43.5,29.67,SW,221,0.0,0.0,91,0.00,,---,0.00,VWS V15.00,2017-09-20 08:16:00,
2017-09-20 01:21:00,45.9,43.7,29.67,SW,221,0.0,0.0,92,0.00,,---,0.00,VWS V15.00,2017-09-20 08:21:00,
2017-09-20 01:26:00,45.9,43.7,29.67,SW,221,0.0,0.0,92,0.00,,---,0.00,VWS V15.00,2017-09-20 08:26:00,
2017-09-20 01:31:00,45.9,43.7,29.67,SW,221,0.0,0.0,92,0.00,,---,0.00,VWS V15.00,2017-09-20 08:31:00,
2017-09-20 01:36:00,46.0,43.8,29.67,SW,222,0.0,0.0,92,0.00,,---,0.00,VWS V15.00,2017-09-20 08:36:00,
2017-09-20 01:41:00,46.3,44.1,29.67,SW,223,0.0,0.0,92,0.00,,---,0.00,VWS V15.00,2017-09-20 08:41:00,
2017-09-20 01:46:00,46.7,44.8,29.67,SW,223,0.0,0.0,93,0.00,,---,0.00,VWS V15.00,2017-09-20 08:46:00,
2017-09-20 01:51:00,46.6,44.4,29.67,SW,223,0.0,0.0,92,0.00,,---,0.00,VWS V15.00,2017-09-20 08:51:00,
2017-09-20 01:56:00,46.4,44.2,29.67,SW,223,0.0,0.0,92,0.00,,---,0.00,VWS V15.00,2017-09-20 08:56:00,
2017-09-20 02:01:00,46.3,44.1,29.66,SW,223,0.0,0.0,92,0.00,,---,0.00,VWS V15.00,2017-09-20 09:01:00,
2017-09-20 02:06:00,46.3,44.1,29.66,SW,223,0.0,0.0,92,0.00,,---,0.00,VWS V15.00,2017-09-20 09:06:00,
2017-09-20 02:11:00,46.3,44.1,29.66,SW,222,0.0,0.0,92,0.00,,---,0.00,VWS V15.00,2017-09-20 09:11:00,
2017-09-20 02:16:00,46.2,44.0,29.66,SW,223,0.0,0.0,92,0.00,,---,0.00,VWS V15.00,2017-09-20 09:16:00,
2017-09-20 02:21:00,46.2,44.0,29.65,SW,222,0.0,0.0,92,0.00,,---,0.00,VWS V15.00,2017-09-20 09:21:00,
2017-09-20 02:26:00,46.1,43.9,29.66,SW,222,0.0,0.0,92,0.00,,---,0.00,VWS V15.00,2017-09-20 09:26:00,
2017-09-20 02:31:00,46.2,44.0,29.66,SW,223,0.0,0.0,92,0.00,,---,0.00,VWS V15.00,2017-09-20 09:31:00,
2017-09-20 02:36:00,46.3,44.1,29.66,SW,223,0.0,0.0,92,0.00,,---,0.00,VWS V15.00,2017-09-20 09:36:00,
2017-09-20 02:41:00,46.4,44.2,29.66,SW,223,0.0,0.0,92,0.00,,---,0.00,VWS V15.00,2017-09-20 09:41:00,
2017-09-20 02:46:00,46.4,44.2,29.66,SW,222,0.0,0.0,92,0.00,,---,0.00,VWS V15.00,2017-09-20 09:46:00,
2017-09-20 02:51:00,46.5,44.3,29.66,SW,223,0.0,0.0,92,0.00,,---,0.00,VWS V15.00,2017-09-20 09:51:00,
2017-09-20 02:56:00,46.6,44.7,29.66,SW,222,0.0,0.0,93,0.00,,---,0.00,VWS V15.00,2017-09-20 09:56:00,
2017-09-20 03:01:00,46.7,44.8,29.66,SW,223,0.0,0.0,93,0.00,,---,0.00,VWS V15.00,2017-09-20 10:01:00,
2017-09-20 03:06:00,46.7,44.8,29.66,SW,222,0.0,0.0,93,0.00,,---,0.00,VWS V15.00,2017-09-20 10:06:00,
2017-09-20 03:11:00,46.8,44.9,29.65,SW,222,0.0,0.0,93,0.00,,---,0.00,VWS V15.00,2017-09-20 10:11:00,
2017-09-20 03:16:00,46.8,44.9,29.65,SW,222,0.0,0.0,93,0.00,,---,0.00,VWS V15.00,2017-09-20 10:16:00,
2017-09-20 03:21:00,46.9,45.0,29.65,SW,223,0.0,0.0,93,0.00,,---,0.00,VWS V15.00,2017-09-20 10:21:00,
2017-09-20 03:26:00,47.0,45.1,29.65,SW,224,0.0,0.0,93,0.00,,---,0.00,VWS V15.00,2017-09-20 10:26:00,
2017-09-20 03:31:00,47.0,45.1,29.65,SW,223,0.0,0.0,93,0.00,,---,0.00,VWS V15.00,2017-09-20 10:31:00,
2017-09-20 03:36:00,47.1,45.2,29.65,SW,223,0.0,0.0,93,0.00,,---,0.00,VWS V15.00,2017-09-20 10:36:00,
2017-09-20 03:41:00,47.2,45.3,29.65,SW,223,0.0,0.0,93,0.00,,---,0.00,VWS V15.00,2017-09-20 10:41:00,
2017-09-20 03:46:00,47.2,45.3,29.65,SW,223,0.0,0.0,93,0.00,,---,0.00,VWS V15.00,2017-09-20 10:46:00,
2017-09-20 03:51:00,47.3,45.4,29.64,SW,223,0.0,0.0,93,0.00,,---,0.00,VWS V15.00,2017-09-20 10:51:00,
2017-09-20 03:56:00,47.3,45.4,29.64,SW,223,0.0,0.0,93,0.00,,---,0.00,VWS V15.00,2017-09-20 10:56:00,
2017-09-20 04:01:00,47.3,45.4,29.64,SW,224,0.0,0.0,93,0.00,,---,0.00,VWS V15.00,2017-09-20 11:01:00,
2017-09-20 04:06:00,47.4,45.5,29.64,SW,223,0.0,0.0,93,0.00,,---,0.00,VWS V15.00,2017-09-20 11:06:00,
2017-09-20 04:11:00,47.4,45.5,29.64,SW,223,0.0,0.0,93,0.00,,---,0.00,VWS V15.00,2017-09-20 11:11:00,
2017-09-20 04:16:00,47.4,45.5,29.64,SW,222,0.0,0.0,93,0.00,,---,0.00,VWS V15.00,2017-09-20 11:16:00,
2017-09-20 04:21:00,47.4,45.5,29.64,SW,223,0.0,0.0,93,0.00,,---,0.00,VWS V15.00,2017-09-20 11:21:00,
2017-09-20 04:26:00,47.4,45.5,29.64,SW,222,0.0,0.0,93,0.00,,---,0.00,VWS V15.00,2017-09-20 11:26:00,
2017-09-20 04:31:00,47.4,45.5,29.64,SW,222,0.0,0.0,93,0.00,,---,0.00,VWS V15.00,2017-09-20 11:31:00,
2017-09-20 04:36:00,47.4,45.5,29.64,SW,223,0.0,0.0,93,0.00,,---,0.00,VWS V15.00,2017-09-20 11:36:00,
2017-09-20 04:41:00,47.4,45.5,29.64,SW,222,0.0,0.0,93,0.00,,---,0.00,VWS V15.00,2017-09-20 11:41:00,
2017-09-20 04:46:00,47.5,45.6,29.64,SW,223,0.0,0.0,93,0.00,,---,0.00,VWS V15.00,2017-09-20 11:46:00,
2017-09-20 04:51:00,47.5,45.6,29.64,SW,222,0.0,0.0,93,0.00,,---,0.00,VWS V15.00,2017-09-20 11:51:00,
2017-09-20 04:56:00,47.6,45.7,29.64,SW,223,0.0,0.0,93,0.00,,---,0.00,VWS V15.00,2017-09-20 11:56:00,
2017-09-20 05:01:00,47.6,45.7,29.64,SW,223,0.0,0.0,93,0.00,,---,0.00,VWS V15.00,2017-09-20 12:01:00,
2017-09-20 05:03:00,47.6,45.7,29.65,SW,223,0.0,0.0,93,0.00,,---,0.00,VWS V15.00,2017-09-20 12:03:00,
2017-09-20 05:08:00,47.7,45.8,29.65,SW,224,0.0,1.0,93,0.00,,---,0.00,VWS V15.00,2017-09-20 12:08:00,
2017-09-20 05:13:00,47.7,45.8,29.65,SW,224,0.0,1.0,93,0.00,,---,0.00,VWS V15.00,2017-09-20 12:13:00,
2017-09-20 05:18:00,47.7,45.8,29.65,SW,224,0.0,1.0,93,0.00,,---,0.00,VWS V15.00,2017-09-20 12:18:00,
2017-09-20 05:23:00,47.7,45.8,29.65,SW,225,0.0,1.0,93,0.00,,---,0.00,VWS V15.00,2017-09-20 12:23:00,
2017-09-20 05:28:00,47.7,45.8,29.65,SW,225,0.0,1.0,93,0.00,,---,0.00,VWS V15.00,2017-09-20 12:28:00,
2017-09-20 05:33:00,47.6,45.7,29.65,SW,224,0.0,0.0,93,0.00,,---,0.00,VWS V15.00,2017-09-20 12:33:00,
2017-09-20 05:38:00,47.6,45.7,29.65,SW,225,0.0,0.0,93,0.00,,---,0.00,VWS V15.00,2017-09-20 12:38:00,
2017-09-20 05:43:00,47.5,45.6,29.65,SW,224,0.0,0.0,93,0.00,,---,0.00,VWS V15.00,2017-09-20 12:43:00,
2017-09-20 05:48:00,47.5,45.6,29.65,SW,224,0.0,0.0,93,0.00,,---,0.00,VWS V15.00,2017-09-20 12:48:00,
2017-09-20 05:53:00,47.5,45.6,29.65,SW,224,0.0,0.0,93,0.00,,---,0.00,VWS V15.00,2017-09-20 12:53:00,
2017-09-20 05:58:00,47.5,45.6,29.65,SW,224,0.0,0.0,93,0.00,,---,0.00,VWS V15.00,2017-09-20 12:58:00,
2017-09-20 06:03:00,47.5,45.6,29.65,SW,225,0.0,0.0,93,0.00,,---,0.00,VWS V15.00,2017-09-20 13:03:00,
2017-09-20 06:08:00,47.6,45.7,29.65,SW,224,0.0,0.0,93,0.00,,---,0.00,VWS V15.00,2017-09-20 13:08:00,
2017-09-20 06:13:00,47.7,45.8,29.65,SW,224,0.0,0.0,93,0.00,,---,0.00,VWS V15.00,2017-09-20 13:13:00,
2017-09-20 06:18:00,47.7,45.8,29.66,SW,225,0.0,0.0,93,0.00,,---,0.00,VWS V15.00,2017-09-20 13:18:00,
2017-09-20 06:23:00,47.6,45.4,29.66,SW,224,0.0,0.0,92,0.00,,---,0.00,VWS V15.00,2017-09-20 13:23:00,
2017-09-20 06:28:00,47.6,45.4,29.66,SW,224,0.0,0.0,92,0.00,,---,0.00,VWS V15.00,2017-09-20 13:28:00,
2017-09-20 06:33:00,47.6,45.7,29.66,SW,224,0.0,0.0,93,0.00,,---,0.00,VWS V15.00,2017-09-20 13:33:00,
2017-09-20 06:38:00,47.6,45.4,29.66,SW,225,0.0,0.0,92,0.00,,---,0.00,VWS V15.00,2017-09-20 13:38:00,
2017-09-20 06:43:00,47.6,45.4,29.66,SW,225,0.0,0.0,92,0.00,,---,0.00,VWS V15.00,2017-09-20 13:43:00,
2017-09-20 06:48:00,47.6,45.4,29.66,SW,225,0.0,0.0,92,0.00,,---,0.00,VWS V15.00,2017-09-20 13:48:00,
2017-09-20 06:53:00,47.6,45.4,29.66,SW,224,0.0,0.0,92,0.00,,---,0.00,VWS V15.00,2017-09-20 13:53:00,
2017-09-20 06:58:00,47.6,45.7,29.66,SW,224,0.0,0.0,93,0.00,,---,0.00,VWS V15.00,2017-09-20 13:58:00,
2017-09-20 07:03:00,47.6,45.7,29.66,SW,225,0.0,0.0,93,0.00,,---,0.00,VWS V15.00,2017-09-20 14:03:00,
2017-09-20 07:08:00,47.6,45.7,29.66,SW,224,0.0,0.0,93,0.00,,---,0.00,VWS V15.00,2017-09-20 14:08:00,
2017-09-20 07:13:00,47.6,45.7,29.66,SW,224,0.0,0.0,93,0.00,,---,0.00,VWS V15.00,2017-09-20 14:13:00,
2017-09-20 07:18:00,47.6,45.7,29.66,SW,224,0.0,0.0,93,0.00,,---,0.00,VWS V15.00,2017-09-20 14:18:00,
2017-09-20 07:23:00,47.7,45.5,29.67,SW,225,0.0,0.0,92,0.00,,---,0.00,VWS V15.00,2017-09-20 14:23:00,
2017-09-20 07:28:00,47.7,45.5,29.67,SW,225,0.0,0.0,92,0.00,,---,0.00,VWS V15.00,2017-09-20 14:28:00,
2017-09-20 07:33:00,47.7,45.5,29.67,SW,225,0.0,0.0,92,0.00,,---,0.00,VWS V15.00,2017-09-20 14:33:00,
2017-09-20 07:38:00,47.7,45.5,29.67,SW,224,0.0,0.0,92,0.00,,---,0.00,VWS V15.00,2017-09-20 14:38:00,
2017-09-20 07:43:00,47.7,45.5,29.67,SW,223,0.0,0.0,92,0.00,,---,0.00,VWS V15.00,2017-09-20 14:43:00,
2017-09-20 07:48:00,47.8,45.9,29.67,SW,223,0.0,0.0,93,0.00,,---,0.00,VWS V15.00,2017-09-20 14:48:00,
2017-09-20 07:53:00,47.9,46.0,29.67,SW,223,0.0,0.0,93,0.00,,---,0.00,VWS V15.00,2017-09-20 14:53:00,
2017-09-20 07:58:00,48.0,46.1,29.67,SW,223,0.0,0.0,93,0.00,,---,0.00,VWS V15.00,2017-09-20 14:58:00,
2017-09-20 08:03:00,48.1,46.2,29.67,SW,223,0.0,0.0,93,0.00,,---,0.00,VWS V15.00,2017-09-20 15:03:00,
2017-09-20 08:08:00,48.3,46.4,29.67,SW,223,0.0,0.0,93,0.00,,---,0.00,VWS V15.00,2017-09-20 15:08:00,
2017-09-20 08:13:00,48.5,46.6,29.67,SW,223,0.0,0.0,93,0.00,,---,0.00,VWS V15.00,2017-09-20 15:13:00,
2017-09-20 08:18:00,48.8,46.9,29.67,SW,224,0.0,0.0,93,0.00,,---,0.00,VWS V15.00,2017-09-20 15:18:00,
2017-09-20 08:23:00,49.0,47.1,29.67,SW,223,0.0,1.0,93,0.00,,---,0.00,VWS V15.00,2017-09-20 15:23:00,
2017-09-20 08:28:00,49.2,47.3,29.67,SW,223,0.0,1.0,93,0.00,,---,0.00,VWS V15.00,2017-09-20 15:28:00,
2017-09-20 08:33:00,49.3,47.1,29.67,SW,223,0.0,0.0,92,0.00,,---,0.00,VWS V15.00,2017-09-20 15:33:00,
2017-09-20 08:34:00,49.3,47.1,29.67,SW,223,0.0,0.0,92,0.00,,---,0.00,VWS V15.00,2017-09-20 15:34:00,
2017-09-20 08:39:00,49.7,47.5,29.67,SW,223,0.0,0.0,92,0.00,,---,0.00,VWS V15.00,2017-09-20 15:39:00,
2017-09-20 08:44:00,50.4,48.2,29.67,SW,223,0.0,0.0,92,0.00,,---,0.00,VWS V15.00,2017-09-20 15:44:00,
2017-09-20 08:49:00,51.0,48.5,29.67,SW,223,2.0,3.0,91,0.00,,---,0.00,VWS V15.00,2017-09-20 15:49:00,
2017-09-20 08:54:00,51.6,48.5,29.67,SW,223,0.0,3.0,89,0.00,,---,0.00,VWS V15.00,2017-09-20 15:54:00,
2017-09-20 08:59:00,52.3,48.9,29.68,SW,223,0.0,3.0,88,0.00,,---,0.00,VWS V15.00,2017-09-20 15:59:00,
2017-09-20 09:04:00,52.8,49.0,29.68,SW,218,0.0,0.0,87,0.00,,---,0.00,VWS V15.00,2017-09-20 16:04:00,
2017-09-20 09:09:00,53.0,48.9,29.68,SW,218,0.0,0.0,86,0.00,,---,0.00,VWS V15.00,2017-09-20 16:09:00,
2017-09-20 09:14:00,53.1,48.7,29.68,SW,218,2.0,2.0,85,0.00,,---,0.00,VWS V15.00,2017-09-20 16:14:00,
2017-09-20 09:19:00,52.8,48.4,29.68,SW,218,0.0,2.0,85,0.00,,---,0.00,VWS V15.00,2017-09-20 16:19:00,
2017-09-20 09:24:00,52.5,48.1,29.68,SW,218,0.0,2.0,85,0.00,,---,0.00,VWS V15.00,2017-09-20 16:24:00,
2017-09-20 09:29:00,52.3,47.9,29.68,SW,217,0.0,2.0,85,0.00,,---,0.00,VWS V15.00,2017-09-20 16:29:00,
2017-09-20 09:34:00,52.4,47.7,29.68,SW,217,0.0,0.0,84,0.00,,---,0.00,VWS V15.00,2017-09-20 16:34:00,
2017-09-20 09:39:00,52.6,47.3,29.68,SW,217,1.0,2.0,82,0.00,,---,0.00,VWS V15.00,2017-09-20 16:39:00,
2017-09-20 09:44:00,53.2,47.9,29.69,SSW,204,1.0,3.0,82,0.00,,---,0.00,VWS V15.00,2017-09-20 16:44:00,
2017-09-20 09:49:00,53.2,48.2,29.69,SW,217,0.0,5.0,83,0.00,,---,0.00,VWS V15.00,2017-09-20 16:49:00,
2017-09-20 09:54:00,53.0,48.0,29.69,SSW,201,0.0,5.0,83,0.00,,---,0.00,VWS V15.00,2017-09-20 16:54:00,
2017-09-20 09:59:00,52.8,47.8,29.69,South,174,1.0,5.0,83,0.00,,---,0.00,VWS V15.00,2017-09-20 16:59:00,